SB KEPS @ AMSAT $ORB16035.N 2Line Orbital Elements 16035.AMSAT
HR AMSAT ORBITAL ELEMENTS FOR AMATEUR SATELLITES IN NASA FORMAT FROM WA5QGD FORT WORTH,TX February 4, 2016 BID: ORB16035.N
DECODE 2-LINE ELSETS WITH THE FOLLOWING KEY: 1 AAAAAU 00 0 0 BBBBB.BBBBBBBB .CCCCCCCC 00000-0 00000-0 0 DDDZ 2 AAAAA EEE.EEEE FFF.FFFF GGGGGGG HHH.HHHH III.IIII JJ.JJJJJJJJKKKKKZ KEY: A-CATALOGNUM B-EPOCHTIME C-DECAY D-ELSETNUM E-INCLINATION F-RAAN G-ECCENTRICITY H-ARGPERIGEE I-MNANOM J-MNMOTION K-ORBITNUM Z-CHECKSUM
TO ALL RADIO AMATEURS BT
AO-07 1 07530U 74089B 16035.85961647 -.00000025 00000-0 11861-3 0 9992 2 07530 101.5567 9.9601 0011767 209.1777 180.2479 12.53619467886414 FO-29 1 24278U 96046B 16035.77291409 -.00000052 00000-0 -17115-4 0 9990 2 24278 98.5763 338.4895 0350257 187.9289 171.6225 13.53063088961477 RS-22 1 27939U 03042A 16035.65804891 .00000383 00000-0 77594-4 0 9995 2 27939 97.8649 192.6339 0013409 14.6372 345.5214 14.66306632660258 HO-68 1 36122U 09072B 16035.82072440 -.00000059 00000-0 -43517-4 0 9994 2 36122 100.1630 76.9813 0006882 305.4940 54.5527 13.16332332295067 AO-73 1 39444U 13066AE 16035.38257241 .00000865 00000-0 11531-3 0 9990 2 39444 97.7004 94.3150 0060634 98.1157 262.6940 14.80829622117779 EO-79 1 40025U 14033R 16035.70318186 .00000967 00000-0 11201-3 0 9991 2 40025 97.9383 301.1418 0013568 137.4085 222.8186 14.87756560 88353 XW-2A 1 40903U 15049E 16035.88771014 .00005571 00000-0 16584-3 0 9991 2 40903 97.4517 49.5010 0014490 250.9813 227.8395 15.35033565 21090 XW-2C 1 40906U 15049H 16035.88651509 .00002665 00000-0 15423-3 0 9992 2 40906 97.4554 45.8802 0017103 133.7193 311.0193 15.12977410 20840 LILACSAT-2 1 40908U 15049K 16035.88617051 .00001568 00000-0 94294-4 0 9993 2 40908 97.4619 45.8564 0017840 126.9760 350.5268 15.12165215 20833 XW-2E 1 40909U 15049L 16035.90526130 .00003313 00000-0 18755-3 0 9991 2 40909 97.4548 45.9907 0015920 135.4870 270.9341 15.13622746 20858 UO-11 1 14781U 84021B 16035.75046010 .00000297 00000-0 43205-4 0 9990 2 14781 97.7695 91.7069 0009357 39.2915 320.8976 14.82658366716481 LO-19 1 20442U 90005G 16034.84647784 .00000039 00000-0 30189-4 0 9995 2 20442 098.5335 331.7346 0011702 177.9350 182.1885 14.32794781360050 AO-27 1 22825U 93061C 16035.85764878 .00000038 00000-0 32240-4 0 9992 2 22825 98.7419 351.4099 0008341 355.5783 4.5324 14.29935507166187 IO-26 1 22826U 93061D 16035.37256412 .00000044 00000-0 34470-4 0 9994 2 22826 98.7361 351.0623 0008727 347.8947 12.2024 14.30257760166270 GO-32 1 25397U 98043D 16035.81028515 .00000009 00000-0 22881-4 0 9999 2 25397 98.5519 344.3243 0001898 46.0066 314.1269 14.23581286912880 NO-44 1 26931U 01043C 16035.71788710 .00000036 00000-0 45874-4 0 9994 2 26931 67.0520 297.2438 0007463 272.9605 87.0642 14.30382614749053 SO-50 1 27607U 02058C 16035.60933295 .00001028 00000-0 14442-3 0 9998 2 27607 64.5549 208.9448 0078916 243.9207 115.4259 14.75039970705565 CO-55 1 27844U 03031E 16035.82697274 .00000142 00000-0 84098-4 0 9992 2 27844 98.6946 46.0201 0009540 355.0336 5.0746 14.21908935653496 CO-57 1 27848U 03031J 16035.83523556 .00000121 00000-0 75147-4 0 9990 2 27848 98.7043 46.0547 0009611 3.1761 356.9476 14.21540811653396 CO-65 1 32785U 08021C 16035.84166686 .00000744 00000-0 87949-4 0 9992 2 32785 97.6201 75.4988 0013800 24.3156 335.8709 14.87367890420808 PRISM 1 33493U 09002B 16035.85573029 .00001473 00000-0 14232-3 0 9997 2 33493 98.2312 249.5693 0014965 288.2009 71.7596 14.94441400381313 TISAT-1 1 36799U 10035E 16035.78612496 .00001615 00000-0 17577-3 0 9994 2 36799 98.0215 144.1320 0013285 159.2394 200.9365 14.89431557301565 ALMASAT-1 1 38078U 12006B 16035.91317133 .00039616 37747-5 56952-3 0 9996 2 38078 69.4536 7.3887 0421330 291.6706 64.0092 14.94202737209616 DUCHIFAT-1 1 40021U 14033M 16035.70301179 .00001398 00000-0 15464-3 0 9995 2 40021 97.9407 301.9123 0014130 136.7468 223.4861 14.88936414 88390 NANOSATCBR1 1 40024U 14033Q 16035.63276878 .00001208 00000-0 13628-3 0 9997 2 40024 97.9385 301.4003 0013385 136.3977 223.8300 14.88396897 88366 DTUSAT-2 1 40030U 14033W 16035.71899325 .00000938 00000-0 10980-3 0 9998 2 40030 97.9365 300.7194 0013126 131.1004 229.1348 14.87394170 88330 ANTELSAT 1 40034U 14033AA 16035.64072178 .00000638 00000-0 10385-3 0 9999 2 40034 97.9207 287.2846 0060874 94.2629 266.5556 14.73196944 87515 MET-2/21 1 22782U 93055A 16035.18432848 .00000046 00000-0 28197-4 0 9997 2 22782 82.5467 59.5788 0023140 33.5348 33.0608 13.83782692132682 NOAA-15 1 25338U 98030A 16035.81084020 .00000143 00000-0 60463-4 0 9990 2 25338 98.7815 39.7042 0009999 208.7289 151.3830 14.25699778921986 NOAA-18 1 28654U 05018A 16035.65840324 .00000064 00000-0 60008-4 0 9994 2 28654 99.1964 39.1240 0014785 32.5324 327.6755 14.12265108551880 NOAA-19 1 33591U 09005A 16035.59154351 .00000154 00000-0 10885-3 0 9998 2 33591 99.0228 351.3973 0013118 233.3422 126.6544 14.12035504360289 HUBBLE 1 20580U 90037B 16034.52758377 .00001509 00000-0 84081-4 0 9992 2 20580 28.4705 67.8378 0002821 196.3330 319.1370 15.08112932214766 ISS 1 25544U 98067A 16035.81538800 .00008420 00000-0 13283-3 0 9992 2 25544 51.6446 3.1456 0006851 80.1339 357.4887 15.54424059984238 CO-58 1 28895U 05043F 16035.74175056 .00000449 00000-0 95919-4 0 9998 2 28895 97.8230 216.4541 0015690 281.9248 78.0195 14.63079444547593 CAPE1 1 31130U 07012P 16035.38156780 .00000571 00000-0 13306-3 0 9990 2 31130 98.0158 355.9298 0095947 313.2655 46.0565 14.55806988466669 AAUSAT2 1 32788U 08021F 16035.07151468 .00001753 00000-0 17469-3 0 9992 2 32788 97.6223 82.2729 0012196 5.0330 355.1010 14.92789763421186 DO-64 1 32789U 08021G 16035.36156064 .00004031 00000-0 31011-3 0 9993 2 32789 97.6269 96.8993 0012498 5.5576 354.5785 15.02195208421902 CO-66 1 32791U 08021J 16035.58505773 .00001124 00000-0 12351-3 0 9991 2 32791 97.6216 77.9627 0013971 15.8864 344.2789 14.89479188420907 RS-30 1 32953U 08025A 16035.75862555 .00000010 00000-0 -13620-7 0 9996 2 32953 82.5022 189.6102 0018265 293.2438 66.6717 12.43066714349501 JUGNU 1 37839U 11058B 16034.86732389 .00000331 00000-0 34855-4 0 9991 2 37839 19.9603 237.9456 0018974 79.7686 38.9954 14.12518764223013 SRMSAT 1 37841U 11058D 16035.07423020 .00000327 00000-0 34869-4 0 9997 2 37841 19.9717 268.1290 0011818 359.3394 153.2098 14.10522000222731 AO-71 1 37854U 11061E 16035.17998721 .00003474 00000-0 20291-3 0 9990 2 37854 101.7046 10.2560 0177927 108.8120 253.2481 15.00869889231987 HRBE 1 37855U 11061F 16034.90183315 .00004214 00000-0 23864-3 0 9998 2 37855 101.7176 8.0164 0192243 113.0609 249.0995 14.99773193231853 HORYU-2 1 38340U 12025D 16034.91719573 .00000763 00000-0 12188-3 0 9993 2 38340 098.3422 016.2769 0013100 080.2637 280.0049 14.74816638189278 RS-40 1 38735U 12041C 16035.80759732 .00000040 00000-0 21992-3 0 9990 2 38735 82.4755 274.9302 0017685 35.0266 325.1969 12.42571104159800 BEESAT-3 1 39134U 13015E 16035.81552986 .00007214 00000-0 38537-3 0 9992 2 39134 64.8718 31.8102 0013343 234.7433 125.2954 15.14791150153901 BEESAT-2 1 39136U 13015G 16035.75852060 .00003876 00000-0 23055-3 0 9992 2 39136 64.8725 36.5393 0013632 231.6130 128.3770 15.12692348153813 ZACUBE-1 1 39417U 13066B 16035.57650061 .00000701 00000-0 96031-4 0 9996 2 39417 97.6996 94.0404 0061349 98.9259 261.8905 14.80202262119007 TRITON-1 1 39427U 13066M 16035.34559083 .00000534 00000-0 94102-4 0 9995 2 39427 97.6849 77.0826 0115985 144.9187 215.9729 14.67032434117898 GOMX-1 1 39430U 13066Q 16035.75267011 .00000451 00000-0 91699-4 0 9997 2 39430 97.6826 66.7754 0152725 176.1277 184.1138 14.58436651117274 LO-74 1 39440U 13066AA 16035.78921121 .00000646 00000-0 98080-4 0 9997 2 39440 97.6932 87.5912 0082775 115.3016 245.6798 14.74980019118617 SPROUT 1 39770U 14029E 16035.08929683 .00002216 00000-0 26693-3 0 9992 2 39770 97.8691 133.9114 0010263 157.4074 202.7620 14.84845473 92031 EO-80 1 40032U 14033Y 16035.67175336 .00000953 00000-0 11163-3 0 9995 2 40032 97.9373 300.6827 0013075 131.5086 228.7254 14.87324774 88323 VELOX-1 1 40057U 14034E 16035.84037269 .00000937 00000-0 14231-3 0 9995 2 40057 98.1995 122.6465 0010660 209.1054 150.9556 14.76449478 86200 DAURIA DX 1 1 40071U 14037C 16035.75005274 .00000421 00000-0 62135-4 0 9990 2 40071 98.3367 121.5090 0007861 207.6631 152.4174 14.80693274 85208 UKUBE-1 1 40074U 14037F 16035.88443559 .00000906 00000-0 11919-3 0 9990 2 40074 98.3397 123.2428 0004152 204.9435 155.1580 14.82813268 85312 HODOYOSHI-1 1 40299U 14070B 16035.85407102 .00002293 00000-0 10717-3 0 9993 2 40299 97.4391 119.4800 0014980 42.8468 62.4377 15.20720353 69165 CHUBUSAT-1 1 40300U 14070C 16035.86714068 .00002613 00000-0 12675-3 0 9990 2 40300 97.4352 118.0955 0022660 46.5543 63.2014 15.19166982 69088 QSAT-EOS 1 40301U 14070D 16035.91024506 .00004695 00000-0 21953-3 0 9999 2 40301 97.4310 117.3628 0031319 45.9894 74.5409 15.19824269 69054 FIREBIRD FU3 1 40377U 15003B 16035.70472906 .00009173 00000-0 42801-3 0 9998 2 40377 99.0887 117.4103 0148597 209.8733 149.3950 15.10801629 55618 FIREBIRD FU4 1 40378U 15003C 16035.17208761 .00008439 00000-0 39393-3 0 9992 2 40378 99.0887 116.7876 0148883 211.5843 147.6382 15.10791791 55537 GRIFEX 1 40379U 15003D 16035.82769769 .00006676 00000-0 32284-3 0 9998 2 40379 99.0903 117.0939 0151600 211.9032 147.2945 15.09441682 55604 NO-84 1 40654U 15025X 16035.33010786 .00017120 00000-0 38183-3 0 00229 2 40654 054.9979 288.0143 0225740 100.5687 262.0835 15.21238052003634 NO-83 1 40655U 15025X 16035.27622718 .00023383 00000-0 49378-3 0 00234 2 40655 054.9908 285.6918 0214128 101.3704 261.1456 15.24346210003635 DEORBITSAIL 1 40719U 15032E 16034.94035125 .00001225 00000-0 18857-3 0 9997 2 40719 098.0331 287.6492 0015973 311.9110 048.0735 14.75215792030694 NUDT-PHONESAT 1 40900U 15049B 16035.87184295 .00005788 00000-0 31013-3 0 9990 2 40900 97.4478 46.0816 0016161 153.0552 326.6775 15.15271611 20878 XW-2D 1 40907U 15049J 16035.89547550 .00002879 00000-0 16640-3 0 9993 2 40907 97.4518 45.8208 0016450 131.8205 344.4557 15.12971116 20849 XW-2F 1 40910U 15049M 16035.69066015 .00003785 00000-0 21632-3 0 9991 2 40910 97.4548 45.6840 0017582 131.7855 319.9460 15.13164422 20703 XW-2B 1 40911U 15049N 16035.75621535 .00002750 00000-0 15911-3 0 9997 2 40911 97.4568 45.7761 0016288 132.2087 313.4360 15.12968931 20720 DCBB 1 40912U 15049P 16035.86416933 .00003637 00000-0 19753-3 0 9997 2 40912 97.4555 46.2357 0017987 128.3726 351.4574 15.15008216 20764 TW-1C 1 40926U 15051B 16035.90042972 .00012032 00000-0 37450-3 0 9991 2 40926 97.2933 74.4160 0015980 161.5701 322.3543 15.33315402 20317 TW-1A 1 40928U 15051D 16035.89181918 .00005589 00000-0 18417-3 0 9996 2 40928 97.2872 74.1684 0014547 175.8859 309.9440 15.31764424 20305 IO-86 1 40931U 15052B 16035.12606425 .00000730 00000-0 12820-4 0 9998 2 40931 5.9966 190.8707 0013749 20.4437 339.6294 14.76415456 19087 AAUSat-5 1 40948U 98067GZ 16035.78663484 .00184474 00000-0 10427-2 0 9990 2 40948 51.6365 354.0675 0009316 97.0477 263.1584 15.77980603 19135 GomX-3 1 40949U 98067HA 16035.77221416 .00027562 00000-0 27325-3 0 9995 2 40949 51.6402 357.7729 0007728 83.6895 276.4980 15.65556040 19080 LQSat 1 40958U 15057A 16035.88326231 .00000179 00000-0 35821-4 0 9992 2 40958 98.0277 112.4600 0017390 217.7018 142.2948 14.72801496 17764 AO-85 1 40967U 15058D 16034.32512914 .00000819 00000-0 10229-3 0 00251 2 40967 064.7798 294.7298 0215297 246.6815 111.1525 14.74710953003389 ATHENOXAT-1 1 41168U 15077C 16035.69862838 .00004585 00000-0 24136-3 0 9996 2 41168 14.9858 204.9027 0013309 319.2119 148.0693 15.08908422 7550 /EX
participants (1)
-
Ray Hoad